User: anonymous
Location: Caltech
(34.1382°N, 118.1253°W)
Time: 02:50:08
(UTC-07:00)
Language:

Oscar 19 - Orbit

View from above orbital plane
View from above orbital plane
View from above satellite
View from above satellite

Ground track
Ground track

The orbit data is extracted from the following two-line orbital elements,

1 20442U 90005G   14233.38004209  .00000048  00000-0  33526-4 0   339
2 20442 098.4802 169.9552 0010820 319.5665 040.4714 14.32577998284018
Epoch (UTC): 21 August 2014 09:07:15
Eccentricity: 0.0010820
inclination: 98.4802°
perigee height: 775 km
apogee height: 791 km
right ascension of ascending node: 169.9552°
argument of perigee: 319.5665°
revolutions per day: 14.32577998
mean anomaly at epoch: 40.4714°
orbit number at epoch: 28401

The dashed part of the orbit path shows where the satellite is in the earth's shadow,  

DLR